SBI1013 UUDD-UWGG

Flight info

Callsign SBI1013
Flight time 0h 44m
Altitude 33000
Route KOGOM4N KOGOM L94 USTOK USTOK2Z
Aircraft A20N/M-SDE2E3FGHIRWXY/LB1

Departure

Time 2026-04-25 07:58
Airport Domodedovo International Airport (UUDD)

Arrival

Time 2026-04-25 08:43
Airport Nizhny Novgorod / Strigino International Airport (UWGG)
Time Latitude Longitude Altitude Speed Heading
2026-04-25 07:35 55.41127 37.89610 605 ft 0 kts 56°
2026-04-25 07:51 55.41128 37.89612 605 ft 1 kts 56°
2026-04-25 07:52 55.41142 37.89650 605 ft 6 kts 61°
2026-04-25 07:52 55.41118 37.89735 605 ft 11 kts 146°
2026-04-25 07:52 55.41042 37.89824 605 ft 12 kts 146°
2026-04-25 07:52 55.40968 37.89806 605 ft 13 kts 234°
2026-04-25 07:53 55.40909 37.89657 605 ft 16 kts 236°
2026-04-25 07:53 55.40833 37.89491 605 ft 18 kts 231°
2026-04-25 07:53 55.40727 37.89268 605 ft 17 kts 191°
2026-04-25 07:53 55.40653 37.89322 605 ft 18 kts 146°
2026-04-25 07:54 55.40498 37.89508 605 ft 22 kts 146°
2026-04-25 07:54 55.40361 37.89673 605 ft 25 kts 146°
2026-04-25 07:54 55.40213 37.89851 605 ft 26 kts 146°
2026-04-25 07:54 55.40113 37.89970 604 ft 26 kts 146°
2026-04-25 07:55 55.39908 37.90217 605 ft 27 kts 146°
2026-04-25 07:55 55.39804 37.90343 605 ft 26 kts 145°
2026-04-25 07:55 55.39660 37.90516 605 ft 14 kts 148°
2026-04-25 07:55 55.39594 37.90504 604 ft 0 kts 231°
2026-04-25 07:56 55.39592 37.90498 605 ft 2 kts 231°
2026-04-25 07:56 55.39571 37.90449 605 ft 7 kts 235°
2026-04-25 07:56 55.39552 37.90310 605 ft 11 kts 292°
2026-04-25 07:57 55.39583 37.90250 605 ft 0 kts 325°
2026-04-25 07:57 55.39584 37.90248 604 ft 2 kts 325°
2026-04-25 07:58 55.39653 37.90164 605 ft 43 kts 325°
2026-04-25 07:58 55.40125 37.89600 605 ft 117 kts 325°
2026-04-25 07:58 55.41265 37.88240 911 ft 166 kts 327°
2026-04-25 07:58 55.41904 37.87498 1401 ft 168 kts 325°
2026-04-25 07:59 55.42886 37.86225 1946 ft 189 kts 317°
2026-04-25 07:59 55.43828 37.84422 2566 ft 209 kts 308°
2026-04-25 07:59 55.44672 37.82398 3433 ft 207 kts 308°
2026-04-25 07:59 55.45561 37.80441 3941 ft 207 kts 309°
2026-04-25 08:00 55.46881 37.78040 3976 ft 206 kts 327°
2026-04-25 08:00 55.48239 37.76958 3979 ft 224 kts 339°
2026-04-25 08:00 55.49221 37.76340 4000 ft 230 kts 340°
2026-04-25 08:00 55.50740 37.75441 4037 ft 231 kts 341°
2026-04-25 08:01 55.52297 37.74668 3982 ft 233 kts 355°
2026-04-25 08:01 55.54369 37.75742 4062 ft 251 kts 28°
2026-04-25 08:01 55.55399 37.76845 4386 ft 266 kts 28°
2026-04-25 08:01 55.56994 37.78523 5202 ft 266 kts 27°
2026-04-25 08:02 55.58580 37.80177 5751 ft 267 kts 27°
2026-04-25 08:02 55.60715 37.82381 6019 ft 268 kts 26°
2026-04-25 08:02 55.62332 37.84040 5912 ft 267 kts 26°
2026-04-25 08:02 55.63354 37.85228 5899 ft 270 kts 39°
2026-04-25 08:03 55.64400 37.88007 5922 ft 280 kts 70°
2026-04-25 08:03 55.64499 37.91473 6308 ft 293 kts 99°
2026-04-25 08:03 55.64057 37.94978 7343 ft 296 kts 102°
2026-04-25 08:03 55.63382 37.99718 8637 ft 302 kts 102°
2026-04-25 08:04 55.63068 38.01983 9193 ft 306 kts 102°
2026-04-25 08:04 55.62577 38.05684 9737 ft 310 kts 101°
2026-04-25 08:04 55.62106 38.09423 10011 ft 311 kts 100°
2026-04-25 08:04 55.61476 38.14373 10006 ft 311 kts 101°
2026-04-25 08:05 55.61163 38.16835 10053 ft 315 kts 101°
2026-04-25 08:05 55.60671 38.20710 10459 ft 331 kts 100°
2026-04-25 08:05 55.60164 38.24703 11166 ft 341 kts 100°
2026-04-25 08:05 55.59636 38.28823 11973 ft 345 kts 100°
2026-04-25 08:06 55.59103 38.32968 12474 ft 348 kts 100°
2026-04-25 08:06 55.58390 38.38515 12672 ft 348 kts 99°
2026-04-25 08:06 55.58040 38.41260 12679 ft 348 kts 98°
2026-04-25 08:06 55.57926 38.45442 12667 ft 340 kts 76°
2026-04-25 08:07 55.58731 38.49320 12830 ft 336 kts 54°
2026-04-25 08:07 55.59936 38.52827 13669 ft 338 kts 52°
2026-04-25 08:07 55.61149 38.56331 14608 ft 338 kts 52°
2026-04-25 08:07 55.62767 38.61105 15405 ft 341 kts 53°
2026-04-25 08:08 55.63565 38.63491 15693 ft 346 kts 53°
2026-04-25 08:08 55.64787 38.67174 16303 ft 348 kts 54°
2026-04-25 08:08 55.66413 38.72097 16660 ft 349 kts 54°
2026-04-25 08:08 55.67228 38.74570 16662 ft 348 kts 54°
2026-04-25 08:09 55.68438 38.78249 16665 ft 348 kts 54°
2026-04-25 08:09 55.69659 38.81964 16666 ft 348 kts 54°
2026-04-25 08:09 55.70868 38.85651 16665 ft 348 kts 54°
2026-04-25 08:09 55.72501 38.90557 16666 ft 346 kts 52°
2026-04-25 08:10 55.73394 38.92878 16666 ft 344 kts 48°
2026-04-25 08:10 55.74907 38.96176 16786 ft 346 kts 42°
2026-04-25 08:10 55.76562 38.99331 17487 ft 349 kts 40°
2026-04-25 08:10 55.78171 39.02346 18303 ft 349 kts 40°
2026-04-25 08:11 55.80383 39.06493 19266 ft 353 kts 40°
2026-04-25 08:11 55.82073 39.09674 19940 ft 357 kts 40°
2026-04-25 08:11 55.83184 39.11799 20304 ft 361 kts 42°
2026-04-25 08:11 55.84756 39.15342 20610 ft 368 kts 49°
2026-04-25 08:12 55.86120 39.19305 20788 ft 385 kts 55°
2026-04-25 08:12 55.87351 39.23571 21047 ft 400 kts 57°
2026-04-25 08:12 55.88606 39.28104 21299 ft 414 kts 58°
2026-04-25 08:12 55.89880 39.32748 21696 ft 422 kts 58°
2026-04-25 08:13 55.91600 39.39010 22449 ft 426 kts 57°
2026-04-25 08:13 55.92473 39.42180 22825 ft 428 kts 57°
2026-04-25 08:13 55.93787 39.46943 23345 ft 431 kts 57°
2026-04-25 08:14 55.96875 39.58142 24500 ft 438 kts 57°
2026-04-25 08:14 55.97770 39.61396 24799 ft 441 kts 57°
2026-04-25 08:14 55.99129 39.66342 25255 ft 444 kts 57°
2026-04-25 08:14 56.00518 39.71202 25676 ft 446 kts 56°
2026-04-25 08:15 56.01971 39.76077 26146 ft 447 kts 55°
2026-04-25 08:15 56.03443 39.81010 26749 ft 446 kts 55°
2026-04-25 08:15 56.04882 39.85864 27315 ft 445 kts 55°
2026-04-25 08:15 56.06321 39.90739 27744 ft 447 kts 55°
2026-04-25 08:16 56.08250 39.97298 28284 ft 450 kts 55°
2026-04-25 08:16 56.09220 40.00607 28542 ft 452 kts 55°
2026-04-25 08:16 56.10679 40.05598 28654 ft 454 kts 55°
2026-04-25 08:17 56.13583 40.15570 28650 ft 454 kts 55°
2026-04-25 08:17 56.16495 40.25612 28643 ft 453 kts 55°
2026-04-25 08:18 56.19860 40.37268 28634 ft 453 kts 55°
2026-04-25 08:18 56.22261 40.45623 28629 ft 453 kts 55°
2026-04-25 08:19 56.24979 40.55748 28626 ft 460 kts 63°
2026-04-25 08:19 56.25809 40.61378 28629 ft 471 kts 73°
2026-04-25 08:19 56.26099 40.67201 28630 ft 479 kts 84°
2026-04-25 08:20 56.25583 40.81250 28634 ft 484 kts 89°
2026-04-25 08:20 56.25113 40.91235 28634 ft 483 kts 89°
2026-04-25 08:21 56.24578 41.03252 28630 ft 483 kts 88°
2026-04-25 08:21 56.24313 41.09249 28446 ft 477 kts 88°
2026-04-25 08:21 56.23972 41.17085 27204 ft 484 kts 88°
2026-04-25 08:21 56.23710 41.23160 25985 ft 493 kts 88°
2026-04-25 08:22 56.23531 41.27261 25294 ft 495 kts 88°
2026-04-25 08:22 56.23163 41.35429 24404 ft 487 kts 88°
2026-04-25 08:22 56.22980 41.39404 24037 ft 482 kts 88°
2026-04-25 08:22 56.22611 41.47337 23257 ft 473 kts 88°
2026-04-25 08:23 56.22432 41.51191 22866 ft 469 kts 88°
2026-04-25 08:23 56.22161 41.57006 22260 ft 464 kts 88°
2026-04-25 08:23 56.21888 41.62783 21633 ft 459 kts 88°
2026-04-25 08:23 56.21626 41.68456 20992 ft 455 kts 89°
2026-04-25 08:24 56.21348 41.74383 20317 ft 450 kts 89°
2026-04-25 08:24 56.21216 41.77145 19996 ft 448 kts 89°
2026-04-25 08:24 56.20957 41.82496 19395 ft 444 kts 90°
2026-04-25 08:24 56.20724 41.87242 18844 ft 440 kts 90°
2026-04-25 08:25 56.20390 41.93973 18072 ft 434 kts 90°
2026-04-25 08:25 56.20230 41.97177 17711 ft 432 kts 90°
2026-04-25 08:25 56.19985 42.01996 17127 ft 428 kts 90°
2026-04-25 08:25 56.19761 42.06431 16512 ft 427 kts 91°
2026-04-25 08:26 56.19592 42.09743 16095 ft 425 kts 91°
2026-04-25 08:26 56.19284 42.15682 15414 ft 419 kts 91°
2026-04-25 08:26 56.19076 42.19618 14981 ft 415 kts 92°
2026-04-25 08:26 56.19072 42.19696 14972 ft 415 kts 92°
2026-04-25 08:27 56.18847 42.23890 14504 ft 410 kts 92°
2026-04-25 08:27 56.18573 42.28951 13957 ft 405 kts 92°
2026-04-25 08:27 56.18299 42.33959 13415 ft 399 kts 92°
2026-04-25 08:27 56.18024 42.38940 12898 ft 394 kts 92°
2026-04-25 08:28 56.17669 42.45335 12214 ft 388 kts 92°
2026-04-25 08:28 56.17490 42.48551 11865 ft 385 kts 92°
2026-04-25 08:28 56.17224 42.53286 11329 ft 382 kts 92°
2026-04-25 08:28 56.16953 42.58096 10821 ft 378 kts 92°
2026-04-25 08:29 56.16601 42.64233 10257 ft 368 kts 92°
2026-04-25 08:29 56.16425 42.67268 10067 ft 360 kts 94°
2026-04-25 08:29 56.16097 42.72898 9867 ft 342 kts 94°
2026-04-25 08:29 56.15910 42.76087 9772 ft 331 kts 93°
2026-04-25 08:30 56.15792 42.78096 9723 ft 324 kts 93°
2026-04-25 08:30 56.15539 42.82375 9616 ft 308 kts 93°
2026-04-25 08:30 56.15316 42.86179 9359 ft 302 kts 93°
2026-04-25 08:30 56.15168 42.88704 9089 ft 302 kts 93°
2026-04-25 08:31 56.14952 42.92390 8739 ft 299 kts 94°
2026-04-25 08:31 56.14731 42.96119 8375 ft 297 kts 94°
2026-04-25 08:31 56.14513 42.99764 8044 ft 294 kts 94°
2026-04-25 08:31 56.14230 43.04450 7596 ft 291 kts 94°
2026-04-25 08:32 56.14084 43.06848 7365 ft 290 kts 94°
2026-04-25 08:32 56.13794 43.11585 7059 ft 281 kts 94°
2026-04-25 08:32 56.13585 43.14959 7033 ft 266 kts 94°
2026-04-25 08:32 56.13450 43.17108 7022 ft 256 kts 94°
2026-04-25 08:33 56.13257 43.20192 7001 ft 242 kts 95°
2026-04-25 08:33 56.12953 43.23183 6931 ft 244 kts 102°
2026-04-25 08:33 56.12369 43.27040 6591 ft 242 kts 104°
2026-04-25 08:33 56.11903 43.29950 6328 ft 240 kts 104°
2026-04-25 08:34 56.11601 43.31832 6157 ft 239 kts 104°
2026-04-25 08:34 56.11139 43.34712 5899 ft 239 kts 104°
2026-04-25 08:34 56.10538 43.38475 5602 ft 237 kts 104°
2026-04-25 08:34 56.10090 43.41296 5379 ft 233 kts 104°
2026-04-25 08:35 56.09649 43.44074 5105 ft 232 kts 104°
2026-04-25 08:35 56.09352 43.45941 4909 ft 232 kts 104°
2026-04-25 08:35 56.08769 43.49608 4519 ft 230 kts 104°
2026-04-25 08:35 56.08329 43.52365 4235 ft 229 kts 104°
2026-04-25 08:36 56.07897 43.55067 3952 ft 224 kts 104°
2026-04-25 08:36 56.07479 43.57668 3773 ft 208 kts 103°
2026-04-25 08:36 56.07087 43.60102 3503 ft 199 kts 103°
2026-04-25 08:36 56.06717 43.62405 3245 ft 189 kts 103°
2026-04-25 08:37 56.06360 43.64626 3016 ft 183 kts 103°
2026-04-25 08:37 56.06016 43.66767 2813 ft 175 kts 104°
2026-04-25 08:37 56.05693 43.68776 2608 ft 165 kts 104°
2026-04-25 08:37 56.05421 43.70705 2358 ft 155 kts 90°
2026-04-25 08:38 56.05760 43.72323 2183 ft 132 kts 26°
2026-04-25 08:38 56.06573 43.72850 2247 ft 123 kts
2026-04-25 08:38 56.07138 43.73003 2270 ft 124 kts 358°
2026-04-25 08:38 56.08273 43.73292 2306 ft 125 kts 359°
2026-04-25 08:39 56.08855 43.73461 2317 ft 125 kts
2026-04-25 08:39 56.09992 43.73834 2371 ft 125 kts
2026-04-25 08:39 56.10564 43.74036 2403 ft 125 kts
2026-04-25 08:39 56.11704 43.74451 2272 ft 125 kts
2026-04-25 08:40 56.12548 43.74763 2100 ft 124 kts
2026-04-25 08:40 56.13398 43.75078 1928 ft 124 kts
2026-04-25 08:40 56.14239 43.75389 1752 ft 124 kts
2026-04-25 08:40 56.14765 43.75583 1641 ft 123 kts
2026-04-25 08:41 56.15858 43.75988 1428 ft 123 kts
2026-04-25 08:41 56.16418 43.76192 1318 ft 123 kts
2026-04-25 08:41 56.17533 43.76603 1083 ft 123 kts
2026-04-25 08:41 56.18376 43.76910 922 ft 123 kts
2026-04-25 08:42 56.18933 43.77119 804 ft 123 kts
2026-04-25 08:42 56.20055 43.77525 581 ft 124 kts
2026-04-25 08:42 56.20903 43.77830 412 ft 126 kts
2026-04-25 08:42 56.21749 43.78135 250 ft 115 kts
2026-04-25 08:43 56.22410 43.78351 246 ft 72 kts 12°
2026-04-25 08:43 56.22793 43.78508 246 ft 51 kts 11°
2026-04-25 08:43 56.23123 43.78629 247 ft 46 kts 10°
2026-04-25 08:43 56.23418 43.78739 246 ft 40 kts 12°
2026-04-25 08:44 56.23680 43.78830 246 ft 37 kts 11°
2026-04-25 08:44 56.23925 43.78919 246 ft 28 kts 11°
2026-04-25 08:44 56.24051 43.78965 246 ft 17 kts 12°
2026-04-25 08:44 56.24115 43.79053 247 ft 12 kts 90°
2026-04-25 08:45 56.24078 43.79187 249 ft 12 kts 125°
2026-04-25 08:45 56.24009 43.79263 250 ft 12 kts 173°
2026-04-25 08:45 56.23948 43.79257 250 ft 14 kts 183°
2026-04-25 08:45 56.23793 43.79247 250 ft 18 kts 182°
2026-04-25 08:46 56.23655 43.79232 251 ft 20 kts 181°
2026-04-25 08:46 56.23504 43.79224 253 ft 22 kts 187°
2026-04-25 08:46 56.23342 43.79166 253 ft 25 kts 192°
2026-04-25 08:46 56.23224 43.79123 252 ft 26 kts 191°
2026-04-25 08:47 56.22963 43.79028 251 ft 30 kts 192°
2026-04-25 08:47 56.22755 43.78952 249 ft 29 kts 192°
2026-04-25 08:47 56.22559 43.78878 250 ft 26 kts 191°
2026-04-25 08:47 56.22390 43.78795 249 ft 23 kts 196°
2026-04-25 08:48 56.22237 43.78737 249 ft 19 kts 192°
2026-04-25 08:48 56.22156 43.78752 250 ft 11 kts 146°
2026-04-25 08:48 56.22115 43.78801 250 ft 0 kts 147°